Time,TemperatureF,DewpointF,PressureIn,WindDirection,WindDirectionDegrees,WindSpeedMPH,WindSpeedGustMPH,Humidity,HourlyPrecipIn,Conditions,Clouds,dailyrainin,SoftwareType,DateUTC
2013-11-06 00:00:00,37.3,35.5,30.28,South,179,0.0,0.0,93,0.00,,,0.00,Wunderground v.1.15,2013-11-06 05:00:00,
2013-11-06 00:05:00,37.5,35.7,30.28,South,179,0.0,0.0,93,0.00,,,0.00,Wunderground v.1.15,2013-11-06 05:05:00,
2013-11-06 00:10:00,37.9,36.3,30.29,South,179,0.0,0.0,94,0.00,,,0.00,Wunderground v.1.15,2013-11-06 05:10:00,
2013-11-06 00:15:00,38.1,36.3,30.29,South,179,0.0,0.0,93,0.00,,,0.00,Wunderground v.1.15,2013-11-06 05:15:00,
2013-11-06 00:20:00,38.2,36.4,30.28,South,179,0.0,0.0,93,0.00,,,0.00,Wunderground v.1.15,2013-11-06 05:20:00,
2013-11-06 00:25:00,38.5,36.7,30.28,South,179,0.0,0.0,93,0.00,,,0.00,Wunderground v.1.15,2013-11-06 05:25:00,
2013-11-06 00:30:00,38.6,36.8,30.28,South,179,0.0,0.0,93,0.00,,,0.00,Wunderground v.1.15,2013-11-06 05:30:00,
2013-11-06 00:35:00,38.5,36.7,30.28,South,179,0.0,0.0,93,0.00,,,0.00,Wunderground v.1.15,2013-11-06 05:35:00,
2013-11-06 00:40:00,38.4,36.3,30.28,South,179,0.0,0.0,92,0.00,,,0.00,Wunderground v.1.15,2013-11-06 05:40:00,
2013-11-06 00:45:00,38.2,36.1,30.28,South,179,0.0,0.0,92,0.00,,,0.00,Wunderground v.1.15,2013-11-06 05:45:00,
2013-11-06 00:50:00,38.1,36.0,30.28,South,179,0.0,0.0,92,0.00,,,0.00,Wunderground v.1.15,2013-11-06 05:50:00,
2013-11-06 00:55:00,38.1,36.3,30.28,South,179,0.0,0.0,93,0.00,,,0.00,Wunderground v.1.15,2013-11-06 05:55:00,
2013-11-06 01:00:00,38.0,36.2,30.28,South,179,0.0,0.0,93,0.00,,,0.00,Wunderground v.1.15,2013-11-06 06:00:00,
2013-11-06 01:05:00,37.7,35.9,30.27,South,179,0.0,0.0,93,0.00,,,0.00,Wunderground v.1.15,2013-11-06 06:05:00,
2013-11-06 01:10:00,37.5,35.7,30.27,South,179,0.0,0.0,93,0.00,,,0.00,Wunderground v.1.15,2013-11-06 06:10:00,
2013-11-06 01:15:00,37.3,35.5,30.27,South,179,0.0,0.0,93,0.00,,,0.00,Wunderground v.1.15,2013-11-06 06:15:00,
2013-11-06 01:20:00,37.1,35.3,30.26,South,179,0.0,0.0,93,0.00,,,0.00,Wunderground v.1.15,2013-11-06 06:20:00,
2013-11-06 01:25:00,36.9,35.1,30.26,South,179,0.0,0.0,93,0.00,,,0.00,Wunderground v.1.15,2013-11-06 06:25:00,
2013-11-06 01:30:00,36.9,35.1,30.26,South,179,0.0,0.0,93,0.00,,,0.00,Wunderground v.1.15,2013-11-06 06:30:00,
2013-11-06 01:35:00,36.7,34.9,30.25,South,179,0.0,0.0,93,0.00,,,0.00,Wunderground v.1.15,2013-11-06 06:35:00,
2013-11-06 01:40:00,36.5,34.7,30.25,South,179,0.0,0.0,93,0.00,,,0.00,Wunderground v.1.15,2013-11-06 06:40:00,
2013-11-06 01:45:00,36.5,34.7,30.25,South,179,0.0,0.0,93,0.00,,,0.00,Wunderground v.1.15,2013-11-06 06:45:00,
2013-11-06 01:50:00,36.4,34.6,30.25,South,179,0.0,0.0,93,0.00,,,0.00,Wunderground v.1.15,2013-11-06 06:50:00,
2013-11-06 01:55:00,36.4,34.8,30.25,South,179,0.0,0.0,94,0.00,,,0.00,Wunderground v.1.15,2013-11-06 06:55:00,
2013-11-06 02:00:00,36.4,34.8,30.24,South,179,0.0,0.0,94,0.00,,,0.00,Wunderground v.1.15,2013-11-06 07:00:00,
2013-11-06 02:05:00,36.3,34.7,30.24,South,179,0.0,0.0,94,0.00,,,0.00,Wunderground v.1.15,2013-11-06 07:05:00,
2013-11-06 02:10:00,36.2,34.6,30.24,South,179,0.0,0.0,94,0.00,,,0.00,Wunderground v.1.15,2013-11-06 07:10:00,
2013-11-06 02:20:00,36.3,34.7,30.24,South,179,0.0,0.0,94,0.00,,,0.00,Wunderground v.1.15,2013-11-06 07:20:00,
2013-11-06 02:25:00,36.3,34.7,30.24,South,179,0.0,0.0,94,0.00,,,0.00,Wunderground v.1.15,2013-11-06 07:25:00,
2013-11-06 02:30:00,36.4,34.8,30.24,South,179,0.0,0.0,94,0.00,,,0.00,Wunderground v.1.15,2013-11-06 07:30:00,
2013-11-06 02:35:00,36.7,35.1,30.24,South,179,0.0,0.0,94,0.00,,,0.00,Wunderground v.1.15,2013-11-06 07:35:00,
2013-11-06 02:40:00,36.9,35.6,30.23,South,180,0.0,0.0,95,0.00,,,0.00,Wunderground v.1.15,2013-11-06 07:40:00,
2013-11-06 02:45:00,37.1,35.8,30.23,South,180,0.0,0.0,95,0.00,,,0.00,Wunderground v.1.15,2013-11-06 07:45:00,
2013-11-06 02:50:00,37.2,35.6,30.23,South,180,0.0,0.0,94,0.00,,,0.00,Wunderground v.1.15,2013-11-06 07:50:00,
2013-11-06 02:55:00,37.5,35.9,30.23,South,180,0.0,0.0,94,0.00,,,0.00,Wunderground v.1.15,2013-11-06 07:55:00,
2013-11-06 03:00:00,37.7,36.1,30.23,South,180,0.0,0.0,94,0.00,,,0.00,Wunderground v.1.15,2013-11-06 08:00:00,
2013-11-06 03:05:00,37.8,36.2,30.23,South,180,0.0,0.0,94,0.00,,,0.00,Wunderground v.1.15,2013-11-06 08:05:00,
2013-11-06 03:10:00,37.9,36.1,30.23,South,180,0.0,0.0,93,0.00,,,0.00,Wunderground v.1.15,2013-11-06 08:10:00,
2013-11-06 03:15:00,38.1,36.3,30.23,South,180,0.0,0.0,93,0.00,,,0.00,Wunderground v.1.15,2013-11-06 08:15:00,
2013-11-06 03:20:00,38.2,36.4,30.23,South,180,0.0,0.0,93,0.00,,,0.00,Wunderground v.1.15,2013-11-06 08:20:00,
2013-11-06 03:25:00,38.2,36.1,30.23,South,180,0.0,0.0,92,0.00,,,0.00,Wunderground v.1.15,2013-11-06 08:25:00,
2013-11-06 03:30:00,38.3,36.2,30.22,South,180,0.0,0.0,92,0.00,,,0.00,Wunderground v.1.15,2013-11-06 08:30:00,
2013-11-06 03:35:00,38.3,36.2,30.22,South,181,0.0,0.0,92,0.00,,,0.00,Wunderground v.1.15,2013-11-06 08:35:00,
2013-11-06 03:40:00,38.5,36.4,30.22,South,180,0.0,0.0,92,0.00,,,0.00,Wunderground v.1.15,2013-11-06 08:40:00,
2013-11-06 03:45:00,39.1,37.2,30.22,SW,228,0.0,0.0,93,0.00,,,0.00,Wunderground v.1.15,2013-11-06 08:45:00,
2013-11-06 03:50:00,39.6,37.5,30.22,SW,221,0.0,0.0,92,0.00,,,0.00,Wunderground v.1.15,2013-11-06 08:50:00,
2013-11-06 03:55:00,40.0,37.9,30.22,SW,221,0.0,0.0,92,0.00,,,0.00,Wunderground v.1.15,2013-11-06 08:55:00,
2013-11-06 04:00:00,40.3,37.9,30.21,SW,222,0.0,0.0,91,0.00,,,0.00,Wunderground v.1.15,2013-11-06 09:00:00,
2013-11-06 04:05:00,40.6,37.9,30.22,SW,222,0.0,0.0,90,0.00,,,0.00,Wunderground v.1.15,2013-11-06 09:05:00,
2013-11-06 04:10:00,40.9,38.2,30.22,SW,222,0.0,0.0,90,0.00,,,0.00,Wunderground v.1.15,2013-11-06 09:10:00,
2013-11-06 04:15:00,41.0,38.0,30.22,SW,222,0.0,0.0,89,0.00,,,0.00,Wunderground v.1.15,2013-11-06 09:15:00,
2013-11-06 04:20:00,41.0,38.0,30.22,SW,222,0.0,0.0,89,0.00,,,0.00,Wunderground v.1.15,2013-11-06 09:20:00,
2013-11-06 04:25:00,40.9,37.6,30.22,SW,222,0.0,0.0,88,0.00,,,0.00,Wunderground v.1.15,2013-11-06 09:25:00,
2013-11-06 04:30:00,40.9,37.6,30.22,SW,222,0.0,0.0,88,0.00,,,0.00,Wunderground v.1.15,2013-11-06 09:30:00,
2013-11-06 04:35:00,40.9,37.6,30.22,SW,222,0.0,0.0,88,0.00,,,0.00,Wunderground v.1.15,2013-11-06 09:35:00,
2013-11-06 04:40:00,40.8,37.5,30.21,SW,222,0.0,0.0,88,0.00,,,0.00,Wunderground v.1.15,2013-11-06 09:40:00,
2013-11-06 04:45:00,40.8,37.5,30.21,SW,222,0.0,0.0,88,0.00,,,0.00,Wunderground v.1.15,2013-11-06 09:45:00,
2013-11-06 04:50:00,40.8,37.5,30.21,SW,222,0.0,0.0,88,0.00,,,0.00,Wunderground v.1.15,2013-11-06 09:50:00,
2013-11-06 04:55:00,40.8,37.5,30.21,SW,222,0.0,0.0,88,0.00,,,0.00,Wunderground v.1.15,2013-11-06 09:55:00,
2013-11-06 05:00:00,40.6,37.0,30.20,SW,222,0.0,0.0,87,0.00,,,0.00,Wunderground v.1.15,2013-11-06 10:00:00,
2013-11-06 05:10:00,40.2,36.9,30.20,SW,222,0.0,0.0,88,0.00,,,0.00,Wunderground v.1.15,2013-11-06 10:10:00,
2013-11-06 05:15:00,40.0,36.7,30.21,SW,222,0.0,0.0,88,0.00,,,0.00,Wunderground v.1.15,2013-11-06 10:15:00,
2013-11-06 05:20:00,39.7,36.4,30.21,SW,222,0.0,0.0,88,0.00,,,0.00,Wunderground v.1.15,2013-11-06 10:20:00,
2013-11-06 05:25:00,39.6,36.6,30.21,SW,222,0.0,0.0,89,0.00,,,0.00,Wunderground v.1.15,2013-11-06 10:25:00,
2013-11-06 05:30:00,39.5,36.5,30.22,SW,223,0.0,0.0,89,0.00,,,0.00,Wunderground v.1.15,2013-11-06 10:30:00,
2013-11-06 05:35:00,39.4,36.7,30.21,SW,222,0.0,0.0,90,0.00,,,0.00,Wunderground v.1.15,2013-11-06 10:35:00,
2013-11-06 05:40:00,39.4,36.7,30.21,SW,222,0.0,0.0,90,0.00,,,0.00,Wunderground v.1.15,2013-11-06 10:40:00,
2013-11-06 05:45:00,39.5,36.8,30.21,SW,222,0.0,0.0,90,0.00,,,0.00,Wunderground v.1.15,2013-11-06 10:45:00,
2013-11-06 05:50:00,39.7,37.3,30.21,SW,222,0.0,0.0,91,0.00,,,0.00,Wunderground v.1.15,2013-11-06 10:50:00,
2013-11-06 05:55:00,39.9,37.5,30.21,SW,222,0.0,0.0,91,0.00,,,0.00,Wunderground v.1.15,2013-11-06 10:55:00,
2013-11-06 06:00:00,40.2,37.8,30.21,SW,222,0.0,0.0,91,0.00,,,0.00,Wunderground v.1.15,2013-11-06 11:00:00,
2013-11-06 06:05:00,40.4,38.0,30.20,SW,222,0.0,0.0,91,0.00,,,0.00,Wunderground v.1.15,2013-11-06 11:05:00,
2013-11-06 06:10:00,40.7,38.3,30.20,SW,222,0.0,0.0,91,0.00,,,0.00,Wunderground v.1.15,2013-11-06 11:10:00,
2013-11-06 06:15:00,40.9,38.5,30.19,SW,222,0.0,0.0,91,0.00,,,0.00,Wunderground v.1.15,2013-11-06 11:15:00,
2013-11-06 06:20:00,41.0,38.6,30.19,SW,221,0.0,0.0,91,0.00,,,0.00,Wunderground v.1.15,2013-11-06 11:20:00,
2013-11-06 06:25:00,41.2,38.8,30.19,SW,221,0.0,0.0,91,0.00,,,0.00,Wunderground v.1.15,2013-11-06 11:25:00,
2013-11-06 06:30:00,41.5,39.1,30.19,SW,221,0.0,0.0,91,0.00,,,0.00,Wunderground v.1.15,2013-11-06 11:30:00,
2013-11-06 06:35:00,41.8,39.1,30.19,SW,222,0.0,0.0,90,0.00,,,0.00,Wunderground v.1.15,2013-11-06 11:35:00,
2013-11-06 06:40:00,42.3,39.6,30.19,SW,222,0.0,0.0,90,0.00,,,0.00,Wunderground v.1.15,2013-11-06 11:40:00,
2013-11-06 06:45:00,42.7,39.7,30.18,SW,222,0.0,0.0,89,0.00,,,0.00,Wunderground v.1.15,2013-11-06 11:45:00,
2013-11-06 06:50:00,42.9,39.6,30.18,SW,222,0.0,0.0,88,0.00,,,0.00,Wunderground v.1.15,2013-11-06 11:50:00,
2013-11-06 06:55:00,43.1,39.8,30.18,SW,222,0.0,0.0,88,0.00,,,0.00,Wunderground v.1.15,2013-11-06 11:55:00,
2013-11-06 07:00:00,43.5,39.9,30.18,SW,221,0.0,0.0,87,0.00,,,0.00,Wunderground v.1.15,2013-11-06 12:00:00,
2013-11-06 07:10:00,44.1,40.2,30.18,SSW,193,0.0,0.0,86,0.00,,,0.00,Wunderground v.1.15,2013-11-06 12:10:00,
2013-11-06 07:15:00,44.6,40.7,30.18,SSW,204,0.0,0.0,86,0.00,,,0.00,Wunderground v.1.15,2013-11-06 12:15:00,
2013-11-06 07:20:00,45.1,41.2,30.18,SW,218,0.0,0.0,86,0.00,,,0.00,Wunderground v.1.15,2013-11-06 12:20:00,
2013-11-06 07:25:00,45.6,41.4,30.18,SW,217,0.0,0.0,85,0.00,,,0.00,Wunderground v.1.15,2013-11-06 12:25:00,
2013-11-06 07:30:00,46.0,41.4,30.17,SSW,196,0.0,0.0,84,0.00,,,0.00,Wunderground v.1.15,2013-11-06 12:30:00,
2013-11-06 07:35:00,46.5,41.6,30.17,SW,219,0.0,0.0,83,0.00,,,0.00,Wunderground v.1.15,2013-11-06 12:35:00,
2013-11-06 07:40:00,47.2,42.0,30.17,South,174,0.0,2.0,82,0.00,,,0.00,Wunderground v.1.15,2013-11-06 12:40:00,
2013-11-06 07:45:00,47.9,42.3,30.17,SW,214,1.0,2.0,81,0.00,,,0.00,Wunderground v.1.15,2013-11-06 12:45:00,
2013-11-06 07:50:00,48.3,42.4,30.17,SSW,211,2.0,2.0,80,0.00,,,0.00,Wunderground v.1.15,2013-11-06 12:50:00,
2013-11-06 07:55:00,48.9,42.7,30.17,WSW,245,2.0,2.0,79,0.00,,,0.00,Wunderground v.1.15,2013-11-06 12:55:00,
2013-11-06 08:00:00,49.4,42.8,30.17,South,181,3.0,3.0,78,0.00,,,0.00,Wunderground v.1.15,2013-11-06 13:00:00,
2013-11-06 08:05:00,49.7,43.1,30.17,SSW,196,2.0,3.0,78,0.00,,,0.00,Wunderground v.1.15,2013-11-06 13:05:00,
2013-11-06 08:10:00,50.1,43.5,30.17,West,264,2.0,2.0,78,0.00,,,0.00,Wunderground v.1.15,2013-11-06 13:10:00,
2013-11-06 08:15:00,50.5,43.9,30.16,SW,217,3.0,3.0,78,0.00,,,0.00,Wunderground v.1.15,2013-11-06 13:15:00,
2013-11-06 08:20:00,51.0,43.7,30.16,SW,214,3.0,4.0,76,0.00,,,0.00,Wunderground v.1.15,2013-11-06 13:20:00,
2013-11-06 08:25:00,51.4,44.1,30.15,SSE,155,4.0,4.0,76,0.00,,,0.00,Wunderground v.1.15,2013-11-06 13:25:00,
2013-11-06 08:30:00,51.8,44.1,30.15,SE,142,4.0,4.0,75,0.00,,,0.00,Wunderground v.1.15,2013-11-06 13:30:00,
2013-11-06 08:35:00,52.3,44.6,30.15,SSW,193,4.0,9.0,75,0.00,,,0.00,Wunderground v.1.15,2013-11-06 13:35:00,
2013-11-06 08:40:00,52.8,45.4,30.15,SSE,154,5.0,7.0,76,0.00,,,0.00,Wunderground v.1.15,2013-11-06 13:40:00,
2013-11-06 08:45:00,53.2,45.5,30.15,SSE,153,5.0,8.0,75,0.00,,,0.00,Wunderground v.1.15,2013-11-06 13:45:00,
2013-11-06 08:50:00,53.5,45.8,30.15,SSE,163,5.0,6.0,75,0.00,,,0.00,Wunderground v.1.15,2013-11-06 13:50:00,
2013-11-06 08:55:00,53.7,46.0,30.15,SSW,205,6.0,6.0,75,0.00,,,0.00,Wunderground v.1.15,2013-11-06 13:55:00,
2013-11-06 09:00:00,53.8,46.1,30.15,SSW,193,5.0,5.0,75,0.00,,,0.00,Wunderground v.1.15,2013-11-06 14:00:00,
2013-11-06 09:05:00,53.9,46.5,30.15,SSW,196,5.0,5.0,76,0.00,,,0.00,Wunderground v.1.15,2013-11-06 14:05:00,
2013-11-06 09:10:00,54.0,46.6,30.15,SW,214,4.0,4.0,76,0.00,,,0.00,Wunderground v.1.15,2013-11-06 14:10:00,
2013-11-06 09:15:00,54.2,46.8,30.15,SSW,197,4.0,5.0,76,0.00,,,0.00,Wunderground v.1.15,2013-11-06 14:15:00,
2013-11-06 09:25:00,55.2,47.4,30.14,SW,231,6.0,6.0,75,0.00,,,0.00,Wunderground v.1.15,2013-11-06 14:25:00,
2013-11-06 09:30:00,55.5,47.0,30.14,SSW,197,6.0,7.0,73,0.00,,,0.00,Wunderground v.1.15,2013-11-06 14:30:00,
2013-11-06 09:35:00,55.7,47.5,30.14,SSW,193,6.0,7.0,74,0.00,,,0.00,Wunderground v.1.15,2013-11-06 14:35:00,
2013-11-06 09:40:00,55.9,47.0,30.13,SSW,196,6.0,6.0,72,0.00,,,0.00,Wunderground v.1.15,2013-11-06 14:40:00,
2013-11-06 09:45:00,56.2,48.0,30.13,SSE,165,6.0,6.0,74,0.00,,,0.00,Wunderground v.1.15,2013-11-06 14:45:00,
2013-11-06 09:50:00,56.4,47.9,30.13,SSW,203,5.0,7.0,73,0.00,,,0.00,Wunderground v.1.15,2013-11-06 14:50:00,
2013-11-06 09:55:00,56.6,47.7,30.13,SSW,200,5.0,7.0,72,0.00,,,0.00,Wunderground v.1.15,2013-11-06 14:55:00,
2013-11-06 10:00:00,56.8,48.2,30.13,SSW,196,5.0,5.0,73,0.00,,,0.00,Wunderground v.1.15,2013-11-06 15:00:00,
2013-11-06 10:05:00,56.9,47.6,30.13,South,179,6.0,7.0,71,0.00,,,0.00,Wunderground v.1.15,2013-11-06 15:05:00,
2013-11-06 10:10:00,57.2,48.3,30.12,SSW,193,5.0,9.0,72,0.00,,,0.00,Wunderground v.1.15,2013-11-06 15:10:00,
2013-11-06 10:15:00,57.6,48.6,30.12,SW,226,6.0,9.0,72,0.00,,,0.00,Wunderground v.1.15,2013-11-06 15:15:00,
2013-11-06 10:20:00,57.9,48.9,30.13,SSW,197,6.0,6.0,72,0.00,,,0.00,Wunderground v.1.15,2013-11-06 15:20:00,
2013-11-06 10:25:00,58.0,48.6,30.12,South,191,6.0,7.0,71,0.00,,,0.00,Wunderground v.1.15,2013-11-06 15:25:00,
2013-11-06 10:30:00,58.0,48.3,30.12,SSW,198,6.0,6.0,70,0.00,,,0.00,Wunderground v.1.15,2013-11-06 15:30:00,
2013-11-06 10:35:00,58.0,48.6,30.12,South,191,6.0,9.0,71,0.00,,,0.00,Wunderground v.1.15,2013-11-06 15:35:00,
2013-11-06 10:40:00,58.3,48.9,30.12,SSW,208,6.0,6.0,71,0.00,,,0.00,Wunderground v.1.15,2013-11-06 15:40:00,
2013-11-06 10:45:00,58.7,49.3,30.12,SSW,203,6.0,6.0,71,0.00,,,0.00,Wunderground v.1.15,2013-11-06 15:45:00,
2013-11-06 10:50:00,59.1,49.7,30.12,SSW,198,6.0,6.0,71,0.00,,,0.00,Wunderground v.1.15,2013-11-06 15:50:00,
2013-11-06 10:55:00,59.4,50.0,30.12,SSW,211,6.0,11.0,71,0.00,,,0.00,Wunderground v.1.15,2013-11-06 15:55:00,
2013-11-06 11:00:00,59.7,50.3,30.12,SW,214,6.0,6.0,71,0.00,,,0.00,Wunderground v.1.15,2013-11-06 16:00:00,
2013-11-06 11:05:00,60.2,50.8,30.12,South,190,6.0,6.0,71,0.00,,,0.00,Wunderground v.1.15,2013-11-06 16:05:00,
2013-11-06 11:10:00,60.8,50.6,30.12,SSE,162,6.0,6.0,69,0.00,,,0.00,Wunderground v.1.15,2013-11-06 16:10:00,
2013-11-06 11:15:00,61.7,51.4,30.11,SW,230,6.0,8.0,69,0.00,,,0.00,Wunderground v.1.15,2013-11-06 16:15:00,
2013-11-06 11:20:00,62.4,50.1,30.11,SW,225,7.0,7.0,64,0.00,,,0.00,Wunderground v.1.15,2013-11-06 16:20:00,
2013-11-06 11:25:00,63.0,51.9,30.11,SE,146,9.0,9.0,67,0.00,,,0.00,Wunderground v.1.15,2013-11-06 16:25:00,
2013-11-06 11:30:00,63.3,51.3,30.10,SSW,205,9.0,10.0,65,0.00,,,0.00,Wunderground v.1.15,2013-11-06 16:30:00,
2013-11-06 11:35:00,63.5,51.5,30.10,SW,214,9.0,10.0,65,0.00,,,0.00,Wunderground v.1.15,2013-11-06 16:35:00,
2013-11-06 11:40:00,63.5,51.5,30.10,SW,233,9.0,9.0,65,0.00,,,0.00,Wunderground v.1.15,2013-11-06 16:40:00,
2013-11-06 11:45:00,63.5,50.7,30.10,SSW,200,8.0,10.0,63,0.00,,,0.00,Wunderground v.1.15,2013-11-06 16:45:00,
2013-11-06 11:50:00,63.5,51.5,30.10,SSW,196,8.0,10.0,65,0.00,,,0.00,Wunderground v.1.15,2013-11-06 16:50:00,
2013-11-06 11:55:00,63.6,51.2,30.10,SW,219,8.0,10.0,64,0.00,,,0.00,Wunderground v.1.15,2013-11-06 16:55:00,
2013-11-06 12:00:00,63.9,51.1,30.09,SSW,194,8.0,8.0,63,0.00,,,0.00,Wunderground v.1.15,2013-11-06 17:00:00,
2013-11-06 12:05:00,64.4,51.5,30.09,SSW,205,7.0,8.0,63,0.00,,,0.00,Wunderground v.1.15,2013-11-06 17:05:00,
2013-11-06 12:10:00,64.6,51.7,30.08,South,180,7.0,7.0,63,0.00,,,0.00,Wunderground v.1.15,2013-11-06 17:10:00,
2013-11-06 12:15:00,65.0,52.5,30.08,SSW,207,8.0,10.0,64,0.00,,,0.00,Wunderground v.1.15,2013-11-06 17:15:00,
2013-11-06 12:20:00,65.4,52.5,30.07,South,172,8.0,8.0,63,0.00,,,0.00,Wunderground v.1.15,2013-11-06 17:20:00,
2013-11-06 12:25:00,65.6,53.1,30.07,SW,214,9.0,9.0,64,0.00,,,0.00,Wunderground v.1.15,2013-11-06 17:25:00,
2013-11-06 12:30:00,65.3,51.9,30.07,SSW,196,10.0,10.0,62,0.00,,,0.00,Wunderground v.1.15,2013-11-06 17:30:00,
2013-11-06 12:35:00,65.2,51.8,30.07,SSW,210,11.0,12.0,62,0.00,,,0.00,Wunderground v.1.15,2013-11-06 17:35:00,
2013-11-06 12:40:00,65.4,52.0,30.06,SSW,197,11.0,14.0,62,0.00,,,0.00,Wunderground v.1.15,2013-11-06 17:40:00,
2013-11-06 12:45:00,65.4,51.6,30.06,SSW,211,11.0,14.0,61,0.00,,,0.00,Wunderground v.1.15,2013-11-06 17:45:00,
2013-11-06 12:50:00,65.3,51.5,30.06,SSW,211,10.0,10.0,61,0.00,,,0.00,Wunderground v.1.15,2013-11-06 17:50:00,
2013-11-06 12:55:00,65.3,51.9,30.06,SSW,197,9.0,10.0,62,0.00,,,0.00,Wunderground v.1.15,2013-11-06 17:55:00,
2013-11-06 13:00:00,65.4,51.6,30.05,SSW,196,9.0,14.0,61,0.00,,,0.00,Wunderground v.1.15,2013-11-06 18:00:00,
2013-11-06 13:05:00,65.8,52.4,30.05,SSW,196,9.0,14.0,62,0.00,,,0.00,Wunderground v.1.15,2013-11-06 18:05:00,
2013-11-06 13:15:00,66.5,53.5,30.04,SSW,197,8.0,11.0,63,0.00,,,0.00,Wunderground v.1.15,2013-11-06 18:15:00,
2013-11-06 13:20:00,66.5,52.6,30.04,SSW,207,8.0,8.0,61,0.00,,,0.00,Wunderground v.1.15,2013-11-06 18:20:00,
2013-11-06 13:25:00,66.6,52.7,30.03,SW,223,9.0,10.0,61,0.00,,,0.00,Wunderground v.1.15,2013-11-06 18:25:00,
2013-11-06 13:30:00,67.1,53.6,30.03,SW,217,10.0,10.0,62,0.00,,,0.00,Wunderground v.1.15,2013-11-06 18:30:00,
2013-11-06 13:35:00,67.3,53.8,30.03,South,184,9.0,10.0,62,0.00,,,0.00,Wunderground v.1.15,2013-11-06 18:35:00,
2013-11-06 13:40:00,67.6,53.7,30.02,WSW,238,10.0,15.0,61,0.00,,,0.00,Wunderground v.1.15,2013-11-06 18:40:00,
2013-11-06 13:45:00,67.4,53.5,30.02,SSW,211,11.0,15.0,61,0.00,,,0.00,Wunderground v.1.15,2013-11-06 18:45:00,
2013-11-06 13:50:00,67.3,53.8,30.02,SSW,197,10.0,12.0,62,0.00,,,0.00,Wunderground v.1.15,2013-11-06 18:50:00,
2013-11-06 13:55:00,67.2,54.2,30.01,South,182,10.0,12.0,63,0.00,,,0.00,Wunderground v.1.15,2013-11-06 18:55:00,
2013-11-06 14:00:00,67.3,55.1,30.01,SW,228,10.0,10.0,65,0.00,,,0.00,Wunderground v.1.15,2013-11-06 19:00:00,
2013-11-06 14:05:00,67.5,54.9,30.01,SSW,195,10.0,17.0,64,0.00,,,0.00,Wunderground v.1.15,2013-11-06 19:05:00,
2013-11-06 14:10:00,67.5,55.3,30.01,SSW,207,11.0,11.0,65,0.00,,,0.00,Wunderground v.1.15,2013-11-06 19:10:00,
2013-11-06 14:15:00,67.5,55.3,30.01,SSW,212,11.0,11.0,65,0.00,,,0.00,Wunderground v.1.15,2013-11-06 19:15:00,
2013-11-06 14:20:00,67.7,55.1,30.01,SSW,211,11.0,11.0,64,0.00,,,0.00,Wunderground v.1.15,2013-11-06 19:20:00,
2013-11-06 14:25:00,67.7,55.1,30.00,SW,221,12.0,14.0,64,0.00,,,0.00,Wunderground v.1.15,2013-11-06 19:25:00,
2013-11-06 14:30:00,67.7,55.1,30.00,SSW,203,12.0,16.0,64,0.00,,,0.00,Wunderground v.1.15,2013-11-06 19:30:00,
2013-11-06 14:35:00,68.0,55.8,30.00,SW,226,12.0,16.0,65,0.00,,,0.00,Wunderground v.1.15,2013-11-06 19:35:00,
2013-11-06 14:40:00,68.4,56.2,30.00,SW,221,11.0,11.0,65,0.00,,,0.00,Wunderground v.1.15,2013-11-06 19:40:00,
2013-11-06 14:45:00,69.0,55.9,29.99,SSW,205,11.0,11.0,63,0.00,,,0.00,Wunderground v.1.15,2013-11-06 19:45:00,
2013-11-06 14:50:00,69.2,56.1,29.99,SW,226,11.0,11.0,63,0.00,,,0.00,Wunderground v.1.15,2013-11-06 19:50:00,
2013-11-06 14:55:00,69.4,56.3,29.99,South,189,11.0,13.0,63,0.00,,,0.00,Wunderground v.1.15,2013-11-06 19:55:00,
2013-11-06 15:00:00,69.4,56.3,29.98,South,184,12.0,17.0,63,0.00,,,0.00,Wunderground v.1.15,2013-11-06 20:00:00,
2013-11-06 15:10:00,68.1,55.5,29.98,South,173,10.0,11.0,64,0.00,,,0.00,Wunderground v.1.15,2013-11-06 20:10:00,
2013-11-06 15:15:00,67.9,56.1,29.98,SW,214,10.0,11.0,66,0.00,,,0.00,Wunderground v.1.15,2013-11-06 20:15:00,
2013-11-06 15:20:00,67.8,56.0,29.98,SW,217,10.0,10.0,66,0.00,,,0.00,Wunderground v.1.15,2013-11-06 20:20:00,
2013-11-06 15:25:00,67.7,55.5,29.98,SSW,203,9.0,11.0,65,0.00,,,0.00,Wunderground v.1.15,2013-11-06 20:25:00,
2013-11-06 15:30:00,67.5,55.7,29.98,SSW,207,10.0,11.0,66,0.00,,,0.00,Wunderground v.1.15,2013-11-06 20:30:00,
2013-11-06 15:35:00,67.5,55.7,29.98,SSE,149,11.0,11.0,66,0.00,,,0.00,Wunderground v.1.15,2013-11-06 20:35:00,
2013-11-06 15:40:00,67.4,55.6,29.97,South,189,10.0,11.0,66,0.00,,,0.00,Wunderground v.1.15,2013-11-06 20:40:00,
2013-11-06 15:45:00,67.3,55.5,29.98,South,169,10.0,12.0,66,0.00,,,0.00,Wunderground v.1.15,2013-11-06 20:45:00,
2013-11-06 15:50:00,67.3,55.5,29.97,South,189,11.0,13.0,66,0.00,,,0.00,Wunderground v.1.15,2013-11-06 20:50:00,
2013-11-06 15:55:00,67.1,55.8,29.97,SW,217,10.0,13.0,67,0.00,,,0.00,Wunderground v.1.15,2013-11-06 20:55:00,
2013-11-06 16:00:00,66.9,55.6,29.97,SW,217,10.0,12.0,67,0.00,,,0.00,Wunderground v.1.15,2013-11-06 21:00:00,
2013-11-06 16:10:00,66.7,55.4,29.97,SW,229,10.0,11.0,67,0.00,,,0.00,Wunderground v.1.15,2013-11-06 21:10:00,
2013-11-06 16:15:00,66.6,54.9,29.97,South,190,10.0,14.0,66,0.00,,,0.00,Wunderground v.1.15,2013-11-06 21:15:00,
2013-11-06 16:20:00,66.7,55.0,29.96,SW,214,11.0,11.0,66,0.00,,,0.00,Wunderground v.1.15,2013-11-06 21:20:00,
2013-11-06 16:25:00,66.7,55.0,29.96,SW,219,10.0,14.0,66,0.00,,,0.00,Wunderground v.1.15,2013-11-06 21:25:00,
2013-11-06 16:30:00,66.7,55.4,29.96,SSW,205,10.0,10.0,67,0.00,,,0.00,Wunderground v.1.15,2013-11-06 21:30:00,
2013-11-06 16:35:00,66.5,55.2,29.96,SSW,197,10.0,10.0,67,0.00,,,0.00,Wunderground v.1.15,2013-11-06 21:35:00,
2013-11-06 16:40:00,66.2,55.7,29.96,SSW,208,9.0,9.0,69,0.00,,,0.00,Wunderground v.1.15,2013-11-06 21:40:00,
2013-11-06 16:45:00,65.4,55.7,29.96,SW,230,9.0,9.0,71,0.00,,,0.00,Wunderground v.1.15,2013-11-06 21:45:00,
2013-11-06 16:50:00,64.7,56.2,29.96,SSW,208,7.0,8.0,74,0.00,,,0.00,Wunderground v.1.15,2013-11-06 21:50:00,
2013-11-06 16:55:00,64.1,56.0,29.96,SW,228,5.0,8.0,75,0.00,,,0.00,Wunderground v.1.15,2013-11-06 21:55:00,
2013-11-06 17:00:00,63.7,56.0,29.96,SSW,204,6.0,9.0,76,0.00,,,0.00,Wunderground v.1.15,2013-11-06 22:00:00,
2013-11-06 17:05:00,63.7,56.0,29.96,SSW,203,6.0,9.0,76,0.00,,,0.00,Wunderground v.1.15,2013-11-06 22:05:00,
2013-11-06 17:10:00,63.7,56.0,29.96,SW,232,7.0,7.0,76,0.00,,,0.00,Wunderground v.1.15,2013-11-06 22:10:00,
2013-11-06 17:15:00,63.5,56.2,29.96,SW,219,5.0,7.0,77,0.00,,,0.00,Wunderground v.1.15,2013-11-06 22:15:00,
2013-11-06 17:20:00,63.1,56.1,29.97,SW,224,4.0,4.0,78,0.00,,,0.00,Wunderground v.1.15,2013-11-06 22:20:00,
2013-11-06 17:25:00,62.8,56.2,29.97,SSW,208,3.0,4.0,79,0.00,,,0.00,Wunderground v.1.15,2013-11-06 22:25:00,
2013-11-06 17:30:00,62.4,56.1,29.97,SSW,211,3.0,3.0,80,0.00,,,0.01,Wunderground v.1.15,2013-11-06 22:30:00,
2013-11-06 17:35:00,62.0,56.4,29.97,SW,235,2.0,3.0,82,0.00,,,0.01,Wunderground v.1.15,2013-11-06 22:35:00,
2013-11-06 17:40:00,61.6,56.0,29.97,West,268,2.0,2.0,82,0.00,,,0.01,Wunderground v.1.15,2013-11-06 22:40:00,
2013-11-06 17:45:00,61.4,56.2,29.97,SSW,211,2.0,2.0,83,0.00,,,0.01,Wunderground v.1.15,2013-11-06 22:45:00,
2013-11-06 17:50:00,61.4,55.9,29.97,SW,218,2.0,3.0,82,0.00,,,0.01,Wunderground v.1.15,2013-11-06 22:50:00,
2013-11-06 17:55:00,61.4,55.9,29.97,SSW,198,3.0,4.0,82,0.00,,,0.01,Wunderground v.1.15,2013-11-06 22:55:00,
2013-11-06 18:00:00,61.5,56.0,29.97,SSW,203,3.0,4.0,82,0.00,,,0.01,Wunderground v.1.15,2013-11-06 23:00:00,
2013-11-06 18:05:00,61.6,56.0,29.97,SW,219,4.0,5.0,82,0.00,,,0.01,Wunderground v.1.15,2013-11-06 23:05:00,
2013-11-06 18:10:00,61.9,56.0,29.97,SSW,196,5.0,7.0,81,0.00,,,0.01,Wunderground v.1.15,2013-11-06 23:10:00,
2013-11-06 18:15:00,62.0,56.1,29.97,SSW,207,6.0,7.0,81,0.00,,,0.01,Wunderground v.1.15,2013-11-06 23:15:00,
2013-11-06 18:20:00,62.0,56.1,29.97,SSE,155,6.0,6.0,81,0.00,,,0.01,Wunderground v.1.15,2013-11-06 23:20:00,
2013-11-06 18:25:00,62.1,56.2,29.97,SSW,211,6.0,6.0,81,0.00,,,0.01,Wunderground v.1.15,2013-11-06 23:25:00,
2013-11-06 18:30:00,62.1,56.2,29.97,SSW,196,5.0,5.0,81,0.00,,,0.01,Wunderground v.1.15,2013-11-06 23:30:00,
2013-11-06 18:35:00,62.0,56.1,29.97,SW,224,5.0,5.0,81,0.00,,,0.01,Wunderground v.1.15,2013-11-06 23:35:00,
2013-11-06 18:40:00,62.0,56.4,29.97,SW,219,5.0,5.0,82,0.00,,,0.01,Wunderground v.1.15,2013-11-06 23:40:00,
2013-11-06 19:10:00,59.8,57.2,29.98,SW,235,4.0,8.0,91,0.00,,,0.02,Wunderground v.1.15,2013-11-07 00:10:00,
2013-11-06 19:15:00,59.5,57.2,29.98,SSW,197,4.0,8.0,92,0.26,,,0.04,Wunderground v.1.15,2013-11-07 00:15:00,
2013-11-06 19:20:00,59.3,57.3,29.98,SSW,196,5.0,5.0,93,0.16,,,0.06,Wunderground v.1.15,2013-11-07 00:20:00,
2013-11-06 19:25:00,59.0,57.0,29.98,SSW,207,5.0,5.0,93,0.17,,,0.07,Wunderground v.1.15,2013-11-07 00:25:00,
2013-11-06 19:30:00,58.8,57.1,29.98,South,170,5.0,5.0,94,0.12,,,0.08,Wunderground v.1.15,2013-11-07 00:30:00,
2013-11-06 19:35:00,58.7,57.3,29.98,WSW,238,5.0,5.0,95,0.08,,,0.09,Wunderground v.1.15,2013-11-07 00:35:00,
2013-11-06 19:40:00,58.7,57.3,29.97,South,188,6.0,6.0,95,0.09,,,0.10,Wunderground v.1.15,2013-11-07 00:40:00,
2013-11-06 19:45:00,58.8,57.7,29.97,SSW,207,6.0,8.0,96,0.09,,,0.10,Wunderground v.1.15,2013-11-07 00:45:00,
2013-11-06 19:55:00,58.9,57.8,29.97,SW,226,6.0,7.0,96,0.04,,,0.10,Wunderground v.1.15,2013-11-07 00:55:00,
2013-11-06 20:00:00,59.0,57.9,29.96,SSW,204,5.0,6.0,96,0.00,,,0.10,Wunderground v.1.15,2013-11-07 01:00:00,
2013-11-06 20:05:00,59.1,58.0,29.96,SSW,198,6.0,7.0,96,0.00,,,0.10,Wunderground v.1.15,2013-11-07 01:05:00,
2013-11-06 20:10:00,59.1,58.0,29.96,SW,221,6.0,9.0,96,0.00,,,0.10,Wunderground v.1.15,2013-11-07 01:10:00,
2013-11-06 20:15:00,59.2,58.1,29.96,SSW,208,7.0,9.0,96,0.00,,,0.10,Wunderground v.1.15,2013-11-07 01:15:00,
2013-11-06 20:20:00,59.2,58.1,29.95,SSW,206,7.0,7.0,96,0.00,,,0.10,Wunderground v.1.15,2013-11-07 01:20:00,
2013-11-06 20:25:00,59.3,57.9,29.95,SSW,196,7.0,7.0,95,0.00,,,0.10,Wunderground v.1.15,2013-11-07 01:25:00,
2013-11-06 20:30:00,59.4,58.0,29.95,SW,231,7.0,7.0,95,0.00,,,0.10,Wunderground v.1.15,2013-11-07 01:30:00,
2013-11-06 20:35:00,59.4,58.0,29.95,SSW,194,6.0,7.0,95,0.00,,,0.10,Wunderground v.1.15,2013-11-07 01:35:00,
2013-11-06 20:40:00,59.5,58.1,29.95,SW,214,7.0,7.0,95,0.00,,,0.10,Wunderground v.1.15,2013-11-07 01:40:00,
2013-11-06 20:45:00,59.5,58.1,29.95,SSW,210,7.0,8.0,95,0.00,,,0.10,Wunderground v.1.15,2013-11-07 01:45:00,
2013-11-06 20:50:00,59.5,58.1,29.95,SSW,204,6.0,6.0,95,0.00,,,0.10,Wunderground v.1.15,2013-11-07 01:50:00,
2013-11-06 20:55:00,59.6,58.2,29.95,SSW,204,7.0,7.0,95,0.00,,,0.10,Wunderground v.1.15,2013-11-07 01:55:00,
2013-11-06 21:00:00,59.7,58.3,29.95,SSW,207,8.0,12.0,95,0.00,,,0.10,Wunderground v.1.15,2013-11-07 02:00:00,
2013-11-06 21:10:00,59.6,58.2,29.94,South,179,7.0,7.0,95,0.00,,,0.11,Wunderground v.1.15,2013-11-07 02:10:00,
2013-11-06 21:15:00,59.6,58.2,29.94,SW,228,6.0,7.0,95,0.00,,,0.11,Wunderground v.1.15,2013-11-07 02:15:00,
2013-11-06 21:20:00,59.6,58.2,29.94,SW,218,6.0,6.0,95,0.00,,,0.11,Wunderground v.1.15,2013-11-07 02:20:00,
2013-11-06 21:25:00,59.5,58.1,29.94,SSW,204,5.0,6.0,95,0.00,,,0.11,Wunderground v.1.15,2013-11-07 02:25:00,
2013-11-06 21:30:00,59.4,58.0,29.93,SW,225,5.0,6.0,95,0.00,,,0.11,Wunderground v.1.15,2013-11-07 02:30:00,
2013-11-06 21:35:00,59.3,57.9,29.93,SW,214,5.0,6.0,95,0.00,,,0.11,Wunderground v.1.15,2013-11-07 02:35:00,
2013-11-06 21:40:00,59.3,58.2,29.93,SW,219,5.0,7.0,96,0.00,,,0.11,Wunderground v.1.15,2013-11-07 02:40:00,
2013-11-06 21:45:00,59.3,58.2,29.93,SSW,200,5.0,7.0,96,0.00,,,0.11,Wunderground v.1.15,2013-11-07 02:45:00,
2013-11-06 21:50:00,59.3,58.2,29.93,South,188,5.0,5.0,96,0.00,,,0.11,Wunderground v.1.15,2013-11-07 02:50:00,
2013-11-06 21:55:00,59.2,58.1,29.93,SW,222,5.0,8.0,96,0.00,,,0.12,Wunderground v.1.15,2013-11-07 02:55:00,
2013-11-06 22:00:00,59.3,58.2,29.93,SSW,198,5.0,7.0,96,0.00,,,0.12,Wunderground v.1.15,2013-11-07 03:00:00,
2013-11-06 22:05:00,59.3,58.2,29.93,SSW,210,6.0,8.0,96,0.00,,,0.12,Wunderground v.1.15,2013-11-07 03:05:00,
2013-11-06 22:10:00,59.3,58.2,29.92,SSW,207,6.0,8.0,96,0.05,,,0.13,Wunderground v.1.15,2013-11-07 03:10:00,
2013-11-06 22:15:00,59.3,58.2,29.92,SSW,193,6.0,8.0,96,0.05,,,0.13,Wunderground v.1.15,2013-11-07 03:15:00,
2013-11-06 22:20:00,59.2,58.1,29.92,SW,232,5.0,5.0,96,0.06,,,0.14,Wunderground v.1.15,2013-11-07 03:20:00,
2013-11-06 22:25:00,59.2,58.1,29.92,South,186,4.0,6.0,96,0.08,,,0.15,Wunderground v.1.15,2013-11-07 03:25:00,
2013-11-06 22:30:00,59.2,58.1,29.92,South,190,5.0,5.0,96,0.11,,,0.16,Wunderground v.1.15,2013-11-07 03:30:00,
2013-11-06 22:35:00,59.2,58.1,29.91,South,188,4.0,6.0,96,0.11,,,0.16,Wunderground v.1.15,2013-11-07 03:35:00,
2013-11-06 22:40:00,59.2,58.3,29.91,SSW,211,5.0,5.0,97,0.06,,,0.16,Wunderground v.1.15,2013-11-07 03:40:00,
2013-11-06 22:45:00,59.2,58.3,29.91,SSW,207,5.0,5.0,97,0.04,,,0.17,Wunderground v.1.15,2013-11-07 03:45:00,
2013-11-06 22:50:00,59.2,58.1,29.91,SSW,204,4.0,6.0,96,0.04,,,0.17,Wunderground v.1.15,2013-11-07 03:50:00,
2013-11-06 22:55:00,59.2,58.3,29.91,SW,221,5.0,7.0,97,0.06,,,0.18,Wunderground v.1.15,2013-11-07 03:55:00,
2013-11-06 23:00:00,59.2,58.3,29.91,SW,225,5.0,5.0,97,0.44,,,0.21,Wunderground v.1.15,2013-11-07 04:00:00,
2013-11-06 23:05:00,59.2,58.3,29.91,WSW,238,4.0,5.0,97,0.12,,,0.21,Wunderground v.1.15,2013-11-07 04:05:00,
2013-11-06 23:10:00,59.2,58.3,29.92,SSW,197,2.0,4.0,97,0.11,,,0.22,Wunderground v.1.15,2013-11-07 04:10:00,
2013-11-06 23:15:00,59.2,58.3,29.91,West,271,3.0,4.0,97,0.07,,,0.23,Wunderground v.1.15,2013-11-07 04:15:00,
2013-11-06 23:20:00,59.2,58.3,29.91,WNW,300,3.0,6.0,97,0.42,,,0.25,Wunderground v.1.15,2013-11-07 04:20:00,
2013-11-06 23:25:00,59.2,58.1,29.92,SSW,197,3.0,6.0,96,0.14,,,0.27,Wunderground v.1.15,2013-11-07 04:25:00,
2013-11-06 23:30:00,59.1,58.0,29.91,WNW,287,3.0,3.0,96,0.15,,,0.28,Wunderground v.1.15,2013-11-07 04:30:00,
2013-11-06 23:35:00,58.9,57.8,29.91,NW,311,3.0,3.0,96,0.12,,,0.29,Wunderground v.1.15,2013-11-07 04:35:00,
2013-11-06 23:40:00,58.7,57.3,29.91,SSW,197,2.0,3.0,95,0.10,,,0.29,Wunderground v.1.15,2013-11-07 04:40:00,
2013-11-06 23:45:00,58.5,57.1,29.91,NW,312,2.0,3.0,95,0.08,,,0.30,Wunderground v.1.15,2013-11-07 04:45:00,
2013-11-06 23:50:00,58.3,56.9,29.91,North,4,2.0,2.0,95,0.07,,,0.30,Wunderground v.1.15,2013-11-07 04:50:00,
2013-11-06 23:55:00,58.1,56.7,29.91,WSW,239,2.0,3.0,95,0.06,,,0.31,Wunderground v.1.15,2013-11-07 04:55:00,